Location: *
(40.6803°S, 106.0761°E)
Time: 02:10:24
(UTC+00:00)

Daily predictions for brighter satellites

Satellite Brightness Start Highest point End
(mag) Time Altitude Azimuth Time Altitude Azimuth Time Altitude Azimuth
Cosmos 1766 3.2 11:16:14 10° S 11:20:12 79° E 11:24:06 10° N
NOAA 12 4.1 11:18:05 10° SSE 11:23:27 76° ENE 11:28:43 10° N
USA 281 3.6 11:20:33 10° SSE 11:27:10 73° WSW 11:33:43 10° NNW
AQUARIUS 4.3 11:23:40 10° SSE 11:28:16 88° WSW 11:32:47 10° NNW
Cosmos 1707 3.8 11:26:28 10° NE 11:29:39 24° E 11:32:52 10° SE
Cosmos 923 Rocket 4.0 11:25:00 10° N 11:30:13 74° ENE 11:35:33 10° SSE
Cosmos 1842 3.2 11:27:52 10° N 11:31:50 77° E 11:35:52 10° S
Envisat 3.9 11:27:16 10° S 11:32:18 55° WSW 11:37:17 10° NNW
Cosmos 1025 Rocket 4.3 11:30:05 10° NE 11:33:20 20° E 11:36:35 10° SE
Okean-O 3.6 11:32:26 10° SE 11:36:13 26° E 11:39:58 10° NNE
CZ-2D R/B 4.2 11:33:15 10° SE 11:36:42 28° E 11:40:07 10° NNE
Cosmos 158 Rocket 3.8 11:32:08 10° N 11:36:59 70° ENE 11:41:55 10° SSE
Hubble Space Telescope 3.1 11:34:49 10° NW 11:37:04 14° N 11:39:20 10° NNE
FengYun 1-2 T 4.2 11:32:24 10° SSE 11:37:57 68° ENE 11:43:29 10° N
USA 305 3.0 11:35:18 10° SW 11:39:43 85° NW 11:44:05 10° NE
Cosmos 2369 Rocket 2.9 11:35:25 10° S 11:40:32 34° ESE 11:45:30 10° ENE
DMSP B5D2-2 4.1 11:36:44 10° NNE 11:41:56 67° ESE 11:47:12 10° S
Cosmos 1603 4.2 11:38:53 10° N 11:44:00 38° ENE 11:49:11 10° SE
USA 306 3.1 11:39:57 10° SW 11:44:21 78° NW 11:48:40 10° NE
CZ-4B R/B 4.0 11:39:06 10° S 11:44:26 58° WSW 11:49:48 10° NNW
Cosmos 1733 4.1 11:42:02 10° SSW 11:45:54 54° W 11:49:42 10° N
Cosmos 1953 3.7 11:49:49 10° SSE 11:53:06 22° ESE 11:54:52 17° ENE
Cosmos 2297 4.1 11:47:24 10° SSW 11:53:11 69° WNW 11:58:53 10° NNE
IRS-1C Rocket 4.1 11:48:22 10° SSE 11:53:40 62° ENE 11:58:53 10° N
Helios 1A Rocket 3.1 11:50:16 10° SSE 11:54:17 50° E 11:58:16 10° N
